Time,TemperatureF,DewpointF,PressureIn,WindDirection,WindDirectionDegrees,WindSpeedMPH,WindSpeedGustMPH,Humidity,HourlyPrecipIn,Conditions,Clouds,dailyrainin,SolarRadiationWatts/m^2,SoftwareType,DateUTC
2013-02-06 00:00:00,39.5,34.2,29.90,NNE,13,0.0,0.0,81,0.00,,OVC,0.00,0.0,WeatherDisplay:10.37,2013-02-06 05:00:00,
2013-02-06 00:01:00,39.5,34.5,29.90,NNE,13,0.0,0.0,82,0.00,,OVC,0.00,0.0,WeatherDisplay:10.37,2013-02-06 05:01:00,
2013-02-06 00:02:00,39.5,34.5,29.90,NNE,13,0.0,0.0,82,0.00,,OVC,0.00,0.0,WeatherDisplay:10.37,2013-02-06 05:02:00,
2013-02-06 00:07:00,39.3,34.3,29.90,NNE,13,0.0,0.0,82,0.00,,OVC,0.00,0.0,WeatherDisplay:10.37,2013-02-06 05:07:00,
2013-02-06 00:12:00,39.2,34.2,29.90,NNE,13,0.0,0.0,82,0.00,,OVC,0.00,0.0,WeatherDisplay:10.37,2013-02-06 05:12:00,
2013-02-06 00:17:00,39.1,34.1,29.90,NNE,13,0.0,0.0,82,0.00,,OVC,0.00,0.0,WeatherDisplay:10.37,2013-02-06 05:17:00,
2013-02-06 00:22:00,39.1,34.1,29.90,NNE,13,0.0,0.0,82,0.00,,OVC,0.00,0.0,WeatherDisplay:10.37,2013-02-06 05:22:00,
2013-02-06 00:27:00,38.9,34.2,29.90,NNE,13,0.0,0.0,83,0.00,,OVC,0.00,0.0,WeatherDisplay:10.37,2013-02-06 05:27:00,
2013-02-06 00:32:00,38.6,33.9,29.91,NNE,13,0.0,0.0,83,0.00,,OVC,0.00,0.0,WeatherDisplay:10.37,2013-02-06 05:32:00,
2013-02-06 00:37:00,38.2,33.8,29.91,NNE,13,0.0,0.0,84,0.00,,OVC,0.00,0.0,WeatherDisplay:10.37,2013-02-06 05:37:00,
2013-02-06 00:42:00,38.2,33.8,29.91,NNE,13,0.0,0.0,84,0.00,,OVC,0.00,0.0,WeatherDisplay:10.37,2013-02-06 05:42:00,
2013-02-06 00:47:00,38.3,33.6,29.91,NNE,13,0.0,0.0,83,0.00,,OVC,0.00,0.0,WeatherDisplay:10.37,2013-02-06 05:47:00,
2013-02-06 00:52:00,38.0,33.6,29.91,NNE,13,1.1,1.1,84,0.00,,OVC,0.00,0.0,WeatherDisplay:10.37,2013-02-06 05:52:00,
2013-02-06 00:57:00,37.5,33.1,29.91,NNE,13,0.0,0.0,84,0.00,,OVC,0.00,0.0,WeatherDisplay:10.37,2013-02-06 05:57:00,
2013-02-06 01:02:00,37.0,32.9,29.91,NNE,13,0.0,0.0,85,0.00,,OVC,0.00,0.0,WeatherDisplay:10.37,2013-02-06 06:02:00,
2013-02-06 01:07:00,37.0,33.2,29.91,NNE,13,0.0,0.0,86,0.00,,OVC,0.00,0.0,WeatherDisplay:10.37,2013-02-06 06:07:00,
2013-02-06 01:12:00,36.9,33.1,29.91,NNE,13,0.0,0.0,86,0.00,,OVC,0.00,0.0,WeatherDisplay:10.37,2013-02-06 06:12:00,
2013-02-06 01:17:00,36.9,33.1,29.91,NNE,13,0.0,0.0,86,0.00,,OVC,0.00,0.0,WeatherDisplay:10.37,2013-02-06 06:17:00,
2013-02-06 01:22:00,36.9,33.4,29.91,NNE,13,0.0,0.0,87,0.00,,OVC,0.00,0.0,WeatherDisplay:10.37,2013-02-06 06:22:00,
2013-02-06 01:27:00,36.9,33.1,29.91,NNE,13,0.0,0.0,86,0.00,,OVC,0.00,0.0,WeatherDisplay:10.37,2013-02-06 06:27:00,
2013-02-06 01:32:00,36.8,33.0,29.91,NNE,13,0.0,0.0,86,0.00,,OVC,0.00,0.0,WeatherDisplay:10.37,2013-02-06 06:32:00,
2013-02-06 01:37:00,36.6,33.1,29.91,NNE,13,0.0,0.0,87,0.00,,OVC,0.00,0.0,WeatherDisplay:10.37,2013-02-06 06:37:00,
2013-02-06 01:42:00,36.5,33.0,29.91,NNE,13,0.0,0.0,87,0.00,,OVC,0.00,0.0,WeatherDisplay:10.37,2013-02-06 06:42:00,
2013-02-06 01:47:00,36.5,33.0,29.91,NNE,13,0.0,0.0,87,0.00,,OVC,0.00,0.0,WeatherDisplay:10.37,2013-02-06 06:47:00,
2013-02-06 01:52:00,36.0,32.5,29.91,NNE,13,0.0,0.0,87,0.00,,OVC,0.00,0.0,WeatherDisplay:10.37,2013-02-06 06:52:00,
2013-02-06 01:57:00,36.2,33.0,29.91,NNE,13,0.0,0.0,88,0.00,,OVC,0.00,0.0,WeatherDisplay:10.37,2013-02-06 06:57:00,
2013-02-06 02:02:00,36.5,33.3,29.91,NNE,13,0.0,0.0,88,0.00,,OVC,0.00,0.0,WeatherDisplay:10.37,2013-02-06 07:02:00,
2013-02-06 02:07:00,36.5,33.3,29.91,NNE,13,0.0,0.0,88,0.00,,OVC,0.00,0.0,WeatherDisplay:10.37,2013-02-06 07:07:00,
2013-02-06 02:12:00,36.2,33.0,29.91,NNE,13,0.0,0.0,88,0.00,,OVC,0.00,0.0,WeatherDisplay:10.37,2013-02-06 07:12:00,
2013-02-06 02:17:00,35.9,32.7,29.91,NNE,13,0.0,0.0,88,0.00,,OVC,0.00,0.0,WeatherDisplay:10.37,2013-02-06 07:17:00,
2013-02-06 02:22:00,35.9,33.0,29.91,NNE,13,0.0,0.0,89,0.00,,OVC,0.00,0.0,WeatherDisplay:10.37,2013-02-06 07:22:00,
2013-02-06 02:27:00,35.6,32.7,29.91,NNE,13,0.0,0.0,89,0.00,,OVC,0.00,0.0,WeatherDisplay:10.37,2013-02-06 07:27:00,
2013-02-06 02:32:00,35.5,32.6,29.91,NNE,13,0.0,0.0,89,0.00,,OVC,0.00,0.0,WeatherDisplay:10.37,2013-02-06 07:32:00,
2013-02-06 02:37:00,35.9,33.3,29.91,NNE,13,0.0,0.0,90,0.00,,OVC,0.00,0.0,WeatherDisplay:10.37,2013-02-06 07:37:00,
2013-02-06 02:42:00,36.0,33.4,29.91,NNE,13,0.0,0.0,90,0.00,,OVC,0.00,0.0,WeatherDisplay:10.37,2013-02-06 07:42:00,
2013-02-06 02:47:00,36.3,33.6,29.91,NNE,13,0.0,0.0,90,0.00,,OVC,0.00,0.0,WeatherDisplay:10.37,2013-02-06 07:47:00,
2013-02-06 02:52:00,36.2,33.5,29.91,NNE,13,0.0,0.0,90,0.00,,OVC,0.00,0.0,WeatherDisplay:10.37,2013-02-06 07:52:00,
2013-02-06 02:57:00,36.5,34.1,29.91,NNE,13,0.0,0.0,91,0.00,,OVC,0.00,0.0,WeatherDisplay:10.37,2013-02-06 07:57:00,
2013-02-06 03:02:00,36.0,33.4,29.91,NNE,13,0.0,0.0,90,0.00,,OVC,0.00,0.0,WeatherDisplay:10.37,2013-02-06 08:02:00,
2013-02-06 03:07:00,35.8,33.2,29.91,NNE,13,0.0,0.0,90,0.00,,OVC,0.00,0.0,WeatherDisplay:10.37,2013-02-06 08:07:00,
2013-02-06 03:12:00,35.5,32.9,29.92,NNE,13,0.0,0.0,90,0.00,,OVC,0.00,0.0,WeatherDisplay:10.37,2013-02-06 08:12:00,
2013-02-06 03:17:00,35.0,32.4,29.92,NNE,13,0.0,0.0,90,0.00,,OVC,0.00,0.0,WeatherDisplay:10.37,2013-02-06 08:17:00,
2013-02-06 03:22:00,34.7,32.1,29.92,NNE,13,0.0,0.0,90,0.00,,OVC,0.00,0.0,WeatherDisplay:10.37,2013-02-06 08:22:00,
2013-02-06 03:27:00,34.7,32.3,29.92,NNE,13,0.0,0.0,91,0.00,,OVC,0.00,0.0,WeatherDisplay:10.37,2013-02-06 08:27:00,
2013-02-06 03:32:00,34.9,32.5,29.92,NNE,13,0.0,0.0,91,0.00,,OVC,0.00,0.0,WeatherDisplay:10.37,2013-02-06 08:32:00,
2013-02-06 03:37:00,34.9,32.5,29.92,NNE,13,0.0,0.0,91,0.00,,OVC,0.00,0.0,WeatherDisplay:10.37,2013-02-06 08:37:00,
2013-02-06 03:42:00,35.2,33.1,29.92,NNE,13,0.0,0.0,92,0.00,,OVC,0.00,0.0,WeatherDisplay:10.37,2013-02-06 08:42:00,
2013-02-06 03:47:00,35.3,33.2,29.92,NNE,13,0.0,0.0,92,0.00,,OVC,0.00,0.0,WeatherDisplay:10.37,2013-02-06 08:47:00,
2013-02-06 03:52:00,35.3,33.5,29.92,NNE,13,0.0,0.0,93,0.00,,OVC,0.00,0.0,WeatherDisplay:10.37,2013-02-06 08:52:00,
2013-02-06 03:57:00,34.9,32.8,29.92,NNE,13,1.1,0.0,92,0.00,,OVC,0.00,0.0,WeatherDisplay:10.37,2013-02-06 08:57:00,
2013-02-06 04:02:00,34.7,32.9,29.93,NNE,13,0.0,0.0,93,0.00,,OVC,0.00,0.0,WeatherDisplay:10.37,2013-02-06 09:02:00,
2013-02-06 04:07:00,34.4,32.3,29.93,NNE,13,0.0,0.0,92,0.00,,OVC,0.00,0.0,WeatherDisplay:10.37,2013-02-06 09:07:00,
2013-02-06 04:12:00,34.0,31.9,29.93,NNE,13,0.0,0.0,92,0.00,,OVC,0.00,0.0,WeatherDisplay:10.37,2013-02-06 09:12:00,
2013-02-06 04:17:00,33.7,31.6,29.93,NNE,13,0.0,0.0,92,0.00,,OVC,0.00,0.0,WeatherDisplay:10.37,2013-02-06 09:17:00,
2013-02-06 04:22:00,33.8,32.0,29.93,NNE,13,0.0,0.0,93,0.00,,OVC,0.00,0.0,WeatherDisplay:10.37,2013-02-06 09:22:00,
2013-02-06 04:27:00,33.8,32.0,29.93,NNE,13,0.0,0.0,93,0.00,,OVC,0.00,0.0,WeatherDisplay:10.37,2013-02-06 09:27:00,
2013-02-06 04:32:00,34.0,32.5,29.94,NNE,13,0.0,0.0,94,0.00,,OVC,0.00,0.0,WeatherDisplay:10.37,2013-02-06 09:32:00,
2013-02-06 04:37:00,34.3,32.8,29.94,NNE,13,0.0,0.0,94,0.00,,OVC,0.00,0.0,WeatherDisplay:10.37,2013-02-06 09:37:00,
2013-02-06 04:42:00,34.4,32.9,29.94,NNE,13,0.0,0.0,94,0.00,,OVC,0.00,0.0,WeatherDisplay:10.37,2013-02-06 09:42:00,
2013-02-06 04:47:00,34.1,32.6,29.94,NNE,13,0.0,0.0,94,0.00,,OVC,0.00,0.0,WeatherDisplay:10.37,2013-02-06 09:47:00,
2013-02-06 04:52:00,34.0,32.5,29.94,NNE,13,0.0,0.0,94,0.00,,OVC,0.00,0.0,WeatherDisplay:10.37,2013-02-06 09:52:00,
2013-02-06 04:57:00,33.7,32.2,29.95,NNE,13,0.0,0.0,94,0.00,,OVC,0.00,0.0,WeatherDisplay:10.37,2013-02-06 09:57:00,
2013-02-06 05:02:00,33.5,32.0,29.95,NNE,13,0.0,0.0,94,0.00,,OVC,0.00,0.0,WeatherDisplay:10.37,2013-02-06 10:02:00,
2013-02-06 05:07:00,33.4,31.9,29.95,NNE,13,0.0,0.0,94,0.00,,OVC,0.00,0.0,WeatherDisplay:10.37,2013-02-06 10:07:00,
2013-02-06 05:12:00,33.2,31.7,29.95,NNE,13,0.0,0.0,94,0.00,,OVC,0.00,0.0,WeatherDisplay:10.37,2013-02-06 10:12:00,
2013-02-06 05:17:00,33.1,31.8,29.95,NNE,13,0.0,0.0,95,0.00,,OVC,0.00,0.0,WeatherDisplay:10.37,2013-02-06 10:17:00,
2013-02-06 05:22:00,33.1,31.8,29.96,NNE,13,0.0,0.0,95,0.00,,OVC,0.00,0.0,WeatherDisplay:10.37,2013-02-06 10:22:00,
2013-02-06 05:27:00,33.1,31.8,29.96,NNE,13,0.0,0.0,95,0.00,,OVC,0.00,0.0,WeatherDisplay:10.37,2013-02-06 10:27:00,
2013-02-06 05:32:00,32.9,31.6,29.96,NNE,13,0.0,0.0,95,0.00,,OVC,0.00,0.0,WeatherDisplay:10.37,2013-02-06 10:32:00,
2013-02-06 05:37:00,33.1,31.8,29.96,NNE,13,0.0,0.0,95,0.00,,OVC,0.00,0.0,WeatherDisplay:10.37,2013-02-06 10:37:00,
2013-02-06 05:42:00,33.2,31.9,29.96,NNE,13,0.0,0.0,95,0.00,,OVC,0.00,0.0,WeatherDisplay:10.37,2013-02-06 10:42:00,
2013-02-06 05:47:00,33.2,31.9,29.97,NNE,13,0.0,0.0,95,0.00,,OVC,0.00,0.0,WeatherDisplay:10.37,2013-02-06 10:47:00,
2013-02-06 05:52:00,33.1,31.8,29.97,NNE,13,0.0,0.0,95,0.00,,OVC,0.00,0.0,WeatherDisplay:10.37,2013-02-06 10:52:00,
2013-02-06 05:57:00,33.1,31.8,29.98,NNE,13,0.0,0.0,95,0.00,,OVC,0.00,0.0,WeatherDisplay:10.37,2013-02-06 10:57:00,
2013-02-06 06:02:00,33.1,32.1,29.98,NNE,13,0.0,0.0,96,0.00,,OVC,0.00,0.0,WeatherDisplay:10.37,2013-02-06 11:02:00,
2013-02-06 06:07:00,32.7,31.7,29.98,NNE,13,0.0,0.0,96,0.00,CLR,OVC,0.00,0.0,WeatherDisplay:10.37,2013-02-06 11:07:00,
2013-02-06 06:12:00,32.5,31.5,29.98,NNE,13,0.0,0.0,96,0.00,,OVC,0.00,0.0,WeatherDisplay:10.37,2013-02-06 11:12:00,
2013-02-06 06:17:00,32.5,31.5,29.98,NNE,13,0.0,0.0,96,0.00,,OVC,0.00,0.0,WeatherDisplay:10.37,2013-02-06 11:17:00,
2013-02-06 06:22:00,33.1,32.1,29.98,NNE,13,0.0,0.0,96,0.00,,OVC,0.00,0.0,WeatherDisplay:10.37,2013-02-06 11:22:00,
2013-02-06 06:27:00,33.4,32.4,29.99,NNE,13,0.0,0.0,96,0.00,,OVC,0.00,0.0,WeatherDisplay:10.37,2013-02-06 11:27:00,
2013-02-06 06:32:00,33.5,32.5,29.99,NNE,13,0.0,0.0,96,0.00,,OVC,0.00,0.0,WeatherDisplay:10.37,2013-02-06 11:32:00,
2013-02-06 06:37:00,34.4,33.6,30.00,NNE,13,0.0,0.0,97,0.00,,OVC,0.00,0.0,WeatherDisplay:10.37,2013-02-06 11:37:00,
2013-02-06 06:42:00,34.9,34.1,30.00,NNE,13,0.0,0.0,97,0.00,,OVC,0.00,0.0,WeatherDisplay:10.37,2013-02-06 11:42:00,
2013-02-06 06:47:00,34.6,33.8,30.01,NNE,13,0.0,0.0,97,0.00,,OVC,0.00,0.0,WeatherDisplay:10.37,2013-02-06 11:47:00,
2013-02-06 06:52:00,33.7,32.7,30.01,NNE,13,0.0,0.0,96,0.00,,OVC,0.00,0.0,WeatherDisplay:10.37,2013-02-06 11:52:00,
2013-02-06 06:57:00,33.4,32.4,30.01,NNE,13,0.0,0.0,96,0.00,CLR,OVC,0.00,0.0,WeatherDisplay:10.37,2013-02-06 11:57:00,
2013-02-06 07:02:00,33.8,32.8,30.01,NNE,13,0.0,0.0,96,0.00,CLR,OVC,0.00,0.0,WeatherDisplay:10.37,2013-02-06 12:02:00,
2013-02-06 07:07:00,34.7,33.9,30.02,NNE,13,0.0,0.0,97,0.00,CLR,OVC,0.00,0.0,WeatherDisplay:10.37,2013-02-06 12:07:00,
2013-02-06 07:12:00,34.1,33.3,30.02,NNE,13,1.1,0.0,97,0.00,CLR,OVC,0.00,0.0,WeatherDisplay:10.37,2013-02-06 12:12:00,
2013-02-06 07:17:00,33.4,32.4,30.03,NNE,13,0.0,0.0,96,0.00,CLR,OVC,0.00,0.0,WeatherDisplay:10.37,2013-02-06 12:17:00,
2013-02-06 07:22:00,34.3,33.5,30.03,NNE,13,0.0,0.0,97,0.00,CLR,OVC,0.00,5.0,WeatherDisplay:10.37,2013-02-06 12:22:00,
2013-02-06 07:27:00,33.8,33.0,30.03,NNE,13,0.0,0.2,97,0.00,CLR,OVC,0.00,9.0,WeatherDisplay:10.37,2013-02-06 12:27:00,
2013-02-06 07:32:00,34.1,33.3,30.03,NNE,13,0.0,0.0,97,0.00,CLR,OVC,0.00,11.0,WeatherDisplay:10.37,2013-02-06 12:32:00,
2013-02-06 07:37:00,34.6,33.8,30.03,NNE,13,0.0,0.0,97,0.00,CLR,OVC,0.00,12.0,WeatherDisplay:10.37,2013-02-06 12:37:00,
2013-02-06 07:42:00,35.3,35.3,30.04,NNE,13,0.0,0.0,100,0.00,CLR,OVC,0.00,16.0,WeatherDisplay:10.37,2013-02-06 12:42:00,
2013-02-06 07:47:00,36.2,36.2,30.04,NNE,13,0.0,0.0,100,0.00,CLR,OVC,0.00,21.0,WeatherDisplay:10.37,2013-02-06 12:47:00,
2013-02-06 07:52:00,35.0,34.2,30.04,NE,53,0.0,0.0,97,0.00,CLR,OVC,0.00,58.0,WeatherDisplay:10.37,2013-02-06 12:52:00,
2013-02-06 07:57:00,35.0,34.2,30.04,NE,53,0.0,0.0,97,0.00,CLR,OVC,0.00,53.0,WeatherDisplay:10.37,2013-02-06 12:57:00,
2013-02-06 08:02:00,35.2,34.4,30.04,NE,53,0.0,0.0,97,0.00,CLR,OVC,0.00,91.0,WeatherDisplay:10.37,2013-02-06 13:02:00,
2013-02-06 08:07:00,36.5,36.5,30.04,NE,53,0.0,0.0,100,0.00,CLR,OVC,0.00,109.0,WeatherDisplay:10.37,2013-02-06 13:07:00,
2013-02-06 08:12:00,39.1,39.1,30.04,NE,53,0.0,0.0,100,0.00,CLR,OVC,0.00,98.0,WeatherDisplay:10.37,2013-02-06 13:12:00,
2013-02-06 08:17:00,39.6,38.8,30.05,NE,53,0.0,0.0,97,0.00,CLR,OVC,0.00,111.0,WeatherDisplay:10.37,2013-02-06 13:17:00,
2013-02-06 08:22:00,40.1,38.2,30.05,NE,53,0.0,0.0,93,0.00,CLR,OVC,0.00,155.0,WeatherDisplay:10.37,2013-02-06 13:22:00,
2013-02-06 08:27:00,39.9,37.2,30.05,NE,53,0.0,0.0,90,0.00,CLR,OVC,0.00,169.0,WeatherDisplay:10.37,2013-02-06 13:27:00,
2013-02-06 08:32:00,40.8,38.1,30.06,NE,53,0.0,0.0,90,0.00,CLR,OVC,0.00,162.0,WeatherDisplay:10.37,2013-02-06 13:32:00,
2013-02-06 08:37:00,42.1,38.8,30.06,NE,53,0.0,0.0,88,0.00,CLR,OVC,0.00,199.0,WeatherDisplay:10.37,2013-02-06 13:37:00,
2013-02-06 08:42:00,43.8,39.0,30.06,NE,53,0.0,0.2,83,0.00,CLR,OVC,0.00,214.0,WeatherDisplay:10.37,2013-02-06 13:42:00,
2013-02-06 08:47:00,45.1,38.3,30.07,NE,53,0.0,0.0,77,0.00,CLR,OVC,0.00,230.0,WeatherDisplay:10.37,2013-02-06 13:47:00,
2013-02-06 08:52:00,46.5,37.6,30.07,NE,52,0.0,0.1,71,0.00,CLR,OVC,0.00,221.0,WeatherDisplay:10.37,2013-02-06 13:52:00,
2013-02-06 08:57:00,47.7,37.3,30.07,North,360,1.1,1.4,67,0.00,CLR,OVC,0.00,257.0,WeatherDisplay:10.37,2013-02-06 13:57:00,
2013-02-06 09:02:00,48.5,36.9,30.07,WNW,300,4.6,4.6,64,0.00,CLR,OVC,0.00,264.0,WeatherDisplay:10.37,2013-02-06 14:02:00,
2013-02-06 09:07:00,48.9,36.0,30.07,NNW,348,4.6,4.6,61,0.00,OVC,,0.00,241.0,WeatherDisplay:10.37,2013-02-06 14:07:00,
2013-02-06 09:12:00,49.1,35.4,30.07,North,5,6.9,6.9,59,0.00,OVC,,0.00,306.0,WeatherDisplay:10.37,2013-02-06 14:12:00,
2013-02-06 09:17:00,49.2,35.0,30.07,NE,46,11.5,11.5,58,0.00,OVC,,0.00,239.0,WeatherDisplay:10.37,2013-02-06 14:17:00,
2013-02-06 09:22:00,49.2,34.6,30.07,NNW,344,6.9,6.9,57,0.00,OVC,,0.00,336.0,WeatherDisplay:10.37,2013-02-06 14:22:00,
2013-02-06 09:27:00,49.4,34.8,30.07,NNW,331,4.6,4.6,57,0.00,OVC,,0.00,330.0,WeatherDisplay:10.37,2013-02-06 14:27:00,
2013-02-06 09:32:00,49.6,35.0,30.08,NNW,329,3.5,3.5,57,0.00,OVC,,0.00,158.0,WeatherDisplay:10.37,2013-02-06 14:32:00,
2013-02-06 09:37:00,49.8,34.7,30.08,North,360,4.0,4.0,56,0.00,OVC,,0.00,355.0,WeatherDisplay:10.37,2013-02-06 14:37:00,
2013-02-06 09:42:00,50.2,34.6,30.08,NE,42,6.9,6.9,55,0.00,OVC,,0.00,279.0,WeatherDisplay:10.37,2013-02-06 14:42:00,
2013-02-06 09:47:00,50.2,34.2,30.08,North,355,5.8,5.8,54,0.00,OVC,,0.00,362.0,WeatherDisplay:10.37,2013-02-06 14:47:00,
2013-02-06 09:52:00,50.4,32.9,30.08,NE,38,6.9,6.9,51,0.00,OVC,,0.00,227.0,WeatherDisplay:10.37,2013-02-06 14:52:00,
2013-02-06 09:57:00,50.7,33.2,30.08,NNW,346,8.1,8.1,51,0.00,OVC,,0.00,424.0,WeatherDisplay:10.37,2013-02-06 14:57:00,
2013-02-06 10:02:00,51.3,33.8,30.08,NNW,346,6.0,6.0,51,0.00,OVC,,0.00,450.0,WeatherDisplay:10.37,2013-02-06 15:02:00,
2013-02-06 10:07:00,51.6,32.5,30.08,North,355,5.8,5.8,48,0.00,OVC,,0.00,462.0,WeatherDisplay:10.37,2013-02-06 15:07:00,
2013-02-06 10:12:00,52.0,32.9,30.09,WNW,292,4.6,4.6,48,0.00,OVC,,0.00,475.0,WeatherDisplay:10.37,2013-02-06 15:12:00,
2013-02-06 10:17:00,52.3,32.6,30.09,North,349,4.6,4.6,47,0.00,OVC,,0.00,489.0,WeatherDisplay:10.37,2013-02-06 15:17:00,
2013-02-06 10:22:00,53.1,31.2,30.09,NNW,337,5.8,5.8,43,0.00,OVC,,0.00,503.0,WeatherDisplay:10.37,2013-02-06 15:22:00,
2013-02-06 10:27:00,53.2,31.3,30.09,NNW,336,6.9,6.9,43,0.00,OVC,,0.00,515.0,WeatherDisplay:10.37,2013-02-06 15:27:00,
2013-02-06 10:32:00,53.5,30.4,30.08,ENE,60,4.6,4.6,41,0.00,OVC,,0.00,526.0,WeatherDisplay:10.37,2013-02-06 15:32:00,
2013-02-06 10:37:00,53.9,30.1,30.08,NW,326,6.9,6.9,40,0.00,OVC,,0.00,538.0,WeatherDisplay:10.37,2013-02-06 15:37:00,
2013-02-06 10:42:00,54.5,29.4,30.08,NNW,333,9.2,9.2,38,0.00,OVC,,0.00,550.0,WeatherDisplay:10.37,2013-02-06 15:42:00,
2013-02-06 10:47:00,55.0,29.2,30.08,North,5,5.8,5.8,37,0.00,OVC,,0.00,559.0,WeatherDisplay:10.37,2013-02-06 15:47:00,
2013-02-06 10:52:00,55.1,28.6,30.08,NE,50,5.8,5.8,36,0.00,OVC,,0.00,568.0,WeatherDisplay:10.37,2013-02-06 15:52:00,
2013-02-06 10:57:00,55.6,29.0,30.08,WNW,300,2.3,2.3,36,0.00,OVC,,0.00,533.0,WeatherDisplay:10.37,2013-02-06 15:57:00,
2013-02-06 11:02:00,56.3,29.0,30.08,NE,38,5.0,5.0,35,0.00,OVC,,0.00,582.0,WeatherDisplay:10.37,2013-02-06 16:02:00,
2013-02-06 11:07:00,56.3,26.8,30.08,North,349,3.5,3.5,32,0.00,OVC,,0.00,589.0,WeatherDisplay:10.37,2013-02-06 16:07:00,
2013-02-06 11:13:00,56.7,23.9,30.08,NW,318,3.5,3.5,28,0.00,OVC,,0.00,573.0,WeatherDisplay:10.37,2013-02-06 16:13:00,
2013-02-06 11:18:00,56.9,24.1,30.09,WNW,300,9.0,9.0,28,0.00,OVC,,0.00,538.0,WeatherDisplay:10.37,2013-02-06 16:18:00,
2013-02-06 11:23:00,56.9,23.2,30.09,North,350,5.8,5.8,27,0.00,OVC,,0.00,540.0,WeatherDisplay:10.37,2013-02-06 16:23:00,
2013-02-06 11:28:00,56.6,23.0,30.09,ENE,59,3.5,3.5,27,0.00,OVC,,0.00,568.0,WeatherDisplay:10.37,2013-02-06 16:28:00,
2013-02-06 11:33:00,57.3,24.4,30.09,NNW,342,6.9,6.9,28,0.00,OVC,,0.00,626.0,WeatherDisplay:10.37,2013-02-06 16:33:00,
2013-02-06 11:38:00,57.8,24.0,30.09,West,281,3.5,3.5,27,0.00,OVC,,0.00,635.0,WeatherDisplay:10.37,2013-02-06 16:38:00,
2013-02-06 11:43:00,58.1,22.4,30.09,NW,304,8.1,8.1,25,0.00,OVC,,0.00,640.0,WeatherDisplay:10.37,2013-02-06 16:43:00,
2013-02-06 11:48:00,58.0,22.3,30.09,West,270,4.6,4.6,25,0.00,OVC,,0.00,642.0,WeatherDisplay:10.37,2013-02-06 16:48:00,
2013-02-06 11:53:00,57.6,21.0,30.09,WNW,294,5.0,5.0,24,0.00,OVC,,0.00,617.0,WeatherDisplay:10.37,2013-02-06 16:53:00,
2013-02-06 11:58:00,58.0,22.3,30.09,WNW,293,4.0,4.0,25,0.00,OVC,,0.00,591.0,WeatherDisplay:10.37,2013-02-06 16:58:00,
2013-02-06 12:03:00,58.1,21.4,30.09,NNE,12,3.5,3.5,24,0.00,OVC,,0.00,654.0,WeatherDisplay:10.37,2013-02-06 17:03:00,
2013-02-06 12:08:00,58.4,21.7,30.09,NNW,331,3.5,3.5,24,0.00,OVC,,0.00,661.0,WeatherDisplay:10.37,2013-02-06 17:08:00,
2013-02-06 12:13:00,58.9,22.1,30.09,North,355,3.5,3.5,24,0.00,OVC,,0.00,664.0,WeatherDisplay:10.37,2013-02-06 17:13:00,
2013-02-06 12:18:00,58.9,22.1,30.09,NNW,346,5.8,5.8,24,0.00,OVC,,0.00,638.0,WeatherDisplay:10.37,2013-02-06 17:18:00,
2013-02-06 12:23:00,59.0,22.2,30.08,NW,304,5.0,5.0,24,0.00,OVC,,0.00,577.0,WeatherDisplay:10.37,2013-02-06 17:23:00,
2013-02-06 12:28:00,59.2,21.4,30.08,North,355,5.8,5.8,23,0.00,OVC,,0.00,510.0,WeatherDisplay:10.37,2013-02-06 17:28:00,
2013-02-06 12:33:00,59.3,20.4,30.08,North,355,4.6,4.6,22,0.00,OVC,,0.00,670.0,WeatherDisplay:10.37,2013-02-06 17:33:00,
2013-02-06 12:38:00,60.4,21.3,30.08,NNW,331,2.3,2.3,22,0.00,OVC,,0.00,671.0,WeatherDisplay:10.37,2013-02-06 17:38:00,
2013-02-06 12:43:00,60.4,20.2,30.08,WSW,238,4.6,4.6,21,0.00,OVC,,0.00,626.0,WeatherDisplay:10.37,2013-02-06 17:43:00,
2013-02-06 12:48:00,60.1,22.1,30.08,WSW,244,6.9,6.9,23,0.00,OVC,,0.00,673.0,WeatherDisplay:10.37,2013-02-06 17:48:00,
2013-02-06 12:53:00,59.9,20.9,30.07,NW,304,5.8,5.8,22,0.00,OVC,,0.00,670.0,WeatherDisplay:10.37,2013-02-06 17:53:00,
2013-02-06 12:58:00,59.5,20.6,30.07,North,355,3.5,3.5,22,0.00,OVC,,0.00,668.0,WeatherDisplay:10.37,2013-02-06 17:58:00,
2013-02-06 13:03:00,59.5,21.6,30.07,North,11,2.3,2.3,23,0.00,OVC,,0.00,643.0,WeatherDisplay:10.37,2013-02-06 18:03:00,
2013-02-06 13:08:00,60.5,24.5,30.07,WSW,248,3.5,3.5,25,0.00,OVC,,0.00,661.0,WeatherDisplay:10.37,2013-02-06 18:08:00,
2013-02-06 13:13:00,60.7,22.6,30.07,South,182,6.9,6.9,23,0.00,OVC,,0.00,661.0,WeatherDisplay:10.37,2013-02-06 18:13:00,
2013-02-06 13:18:00,61.6,23.4,30.06,SW,216,4.6,4.6,23,0.00,OVC,,0.00,659.0,WeatherDisplay:10.37,2013-02-06 18:18:00,
2013-02-06 13:23:00,61.3,23.1,30.06,NW,313,1.1,1.1,23,0.00,OVC,,0.00,654.0,WeatherDisplay:10.37,2013-02-06 18:23:00,
2013-02-06 13:28:00,61.0,22.9,30.06,NW,311,6.9,6.9,23,0.00,OVC,,0.00,650.0,WeatherDisplay:10.37,2013-02-06 18:28:00,
2013-02-06 13:33:00,61.3,24.2,30.06,NW,323,3.5,3.5,24,0.00,OVC,,0.00,649.0,WeatherDisplay:10.37,2013-02-06 18:33:00,
2013-02-06 13:38:00,62.1,22.8,30.06,SW,214,3.5,3.5,22,0.00,OVC,,0.00,643.0,WeatherDisplay:10.37,2013-02-06 18:38:00,
2013-02-06 13:43:00,61.8,23.6,30.06,SW,215,1.1,1.1,23,0.00,OVC,,0.00,636.0,WeatherDisplay:10.37,2013-02-06 18:43:00,
2013-02-06 13:48:00,61.2,23.1,30.06,NNW,336,5.8,5.8,23,0.00,OVC,,0.00,633.0,WeatherDisplay:10.37,2013-02-06 18:48:00,
2013-02-06 13:53:00,61.5,24.3,30.06,West,266,3.5,3.5,24,0.00,OVC,,0.00,624.0,WeatherDisplay:10.37,2013-02-06 18:53:00,
2013-02-06 13:58:00,60.9,22.8,30.06,North,355,5.8,5.8,23,0.00,OVC,,0.00,617.0,WeatherDisplay:10.37,2013-02-06 18:58:00,
2013-02-06 14:03:00,61.2,24.1,30.05,NW,311,1.1,1.1,24,0.00,OVC,,0.00,608.0,WeatherDisplay:10.37,2013-02-06 19:03:00,
2013-02-06 14:08:00,61.2,23.1,30.05,NW,311,2.3,2.3,23,0.00,OVC,,0.00,605.0,WeatherDisplay:10.37,2013-02-06 19:08:00,
2013-02-06 14:13:00,60.7,23.7,30.05,NW,319,3.5,3.5,24,0.00,OVC,,0.00,594.0,WeatherDisplay:10.37,2013-02-06 19:13:00,
2013-02-06 14:18:00,62.0,23.7,30.05,NE,42,1.1,1.1,23,0.00,OVC,,0.00,587.0,WeatherDisplay:10.37,2013-02-06 19:18:00,
2013-02-06 14:23:00,62.0,24.8,30.05,NW,308,4.0,4.0,24,0.00,OVC,,0.00,582.0,WeatherDisplay:10.37,2013-02-06 19:23:00,
2013-02-06 14:28:00,61.3,23.1,30.05,NNE,12,5.8,5.8,23,0.00,OVC,,0.00,568.0,WeatherDisplay:10.37,2013-02-06 19:28:00,
2013-02-06 14:33:00,61.3,23.1,30.05,WNW,301,3.5,3.5,23,0.00,OVC,,0.00,557.0,WeatherDisplay:10.37,2013-02-06 19:33:00,
2013-02-06 14:38:00,61.3,23.1,30.05,North,5,4.6,5.0,23,0.00,OVC,,0.00,550.0,WeatherDisplay:10.37,2013-02-06 19:38:00,
2013-02-06 14:43:00,61.5,23.3,30.05,NNE,33,1.1,1.1,23,0.00,OVC,,0.00,541.0,WeatherDisplay:10.37,2013-02-06 19:43:00,
2013-02-06 14:48:00,61.8,24.6,30.05,NW,310,3.5,3.5,24,0.00,OVC,,0.00,529.0,WeatherDisplay:10.37,2013-02-06 19:48:00,
2013-02-06 14:53:00,61.0,22.9,30.05,NW,311,1.1,0.0,23,0.00,OVC,,0.00,519.0,WeatherDisplay:10.37,2013-02-06 19:53:00,
2013-02-06 14:58:00,61.5,23.3,30.05,NW,311,0.0,0.0,23,0.00,OVC,,0.00,504.0,WeatherDisplay:10.37,2013-02-06 19:58:00,
2013-02-06 15:03:00,61.8,23.6,30.05,NW,315,3.5,3.5,23,0.00,OVC,,0.00,496.0,WeatherDisplay:10.37,2013-02-06 20:03:00,
2013-02-06 15:08:00,62.0,23.7,30.05,NNW,348,4.6,4.6,23,0.00,OVC,,0.00,483.0,WeatherDisplay:10.37,2013-02-06 20:08:00,
2013-02-06 15:13:00,62.1,23.8,30.05,West,281,4.6,4.6,23,0.00,OVC,,0.00,471.0,WeatherDisplay:10.37,2013-02-06 20:13:00,
2013-02-06 15:18:00,61.6,22.3,30.05,NNW,348,3.5,3.5,22,0.00,OVC,,0.00,457.0,WeatherDisplay:10.37,2013-02-06 20:18:00,
2013-02-06 15:23:00,62.7,24.3,30.05,SW,217,4.0,4.0,23,0.00,OVC,,0.00,445.0,WeatherDisplay:10.37,2013-02-06 20:23:00,
2013-02-06 15:28:00,62.3,22.9,30.05,NNW,346,5.8,5.8,22,0.00,OVC,,0.00,432.0,WeatherDisplay:10.37,2013-02-06 20:28:00,
2013-02-06 15:33:00,61.8,23.6,30.05,North,351,4.6,4.6,23,0.00,OVC,,0.00,417.0,WeatherDisplay:10.37,2013-02-06 20:33:00,
2013-02-06 15:38:00,62.0,23.7,30.05,North,360,4.6,4.6,23,0.00,OVC,,0.00,401.0,WeatherDisplay:10.37,2013-02-06 20:38:00,
2013-02-06 15:43:00,62.0,23.7,30.05,NE,49,2.3,2.3,23,0.00,OVC,,0.00,388.0,WeatherDisplay:10.37,2013-02-06 20:43:00,
2013-02-06 15:48:00,61.8,23.6,30.05,NE,49,1.1,1.1,23,0.00,OVC,,0.00,373.0,WeatherDisplay:10.37,2013-02-06 20:48:00,
2013-02-06 15:53:00,61.8,23.6,30.05,East,97,2.3,2.3,23,0.00,OVC,,0.00,359.0,WeatherDisplay:10.37,2013-02-06 20:53:00,
2013-02-06 15:58:00,62.1,23.8,30.05,North,9,4.6,4.6,23,0.00,OVC,,0.00,343.0,WeatherDisplay:10.37,2013-02-06 20:58:00,
2013-02-06 16:03:00,62.1,23.8,30.05,NNE,22,3.5,3.5,23,0.00,OVC,,0.00,329.0,WeatherDisplay:10.37,2013-02-06 21:03:00,
2013-02-06 16:08:00,62.0,22.7,30.05,NNW,342,3.5,3.5,22,0.00,,OVC,0.00,313.0,WeatherDisplay:10.37,2013-02-06 21:08:00,
2013-02-06 16:13:00,61.8,22.5,30.06,NNW,344,4.6,4.6,22,0.00,,OVC,0.00,295.0,WeatherDisplay:10.37,2013-02-06 21:13:00,
2013-02-06 16:18:00,62.1,22.8,30.06,NNE,24,3.5,3.5,22,0.00,,OVC,0.00,279.0,WeatherDisplay:10.37,2013-02-06 21:18:00,
2013-02-06 16:23:00,61.6,22.3,30.06,NNW,342,5.8,5.8,22,0.00,,OVC,0.00,229.0,WeatherDisplay:10.37,2013-02-06 21:23:00,
2013-02-06 16:28:00,61.6,23.4,30.06,NE,36,3.5,3.5,23,0.00,,OVC,0.00,230.0,WeatherDisplay:10.37,2013-02-06 21:28:00,
2013-02-06 16:33:00,61.6,22.3,30.06,NNE,17,3.5,3.5,22,0.00,,OVC,0.00,199.0,WeatherDisplay:10.37,2013-02-06 21:33:00,
2013-02-06 16:38:00,61.5,23.3,30.06,NNW,341,5.0,5.0,23,0.00,,OVC,0.00,128.0,WeatherDisplay:10.37,2013-02-06 21:38:00,
2013-02-06 16:43:00,61.3,23.1,30.06,North,349,3.5,3.5,23,0.00,,OVC,0.00,97.0,WeatherDisplay:10.37,2013-02-06 21:43:00,
2013-02-06 16:48:00,61.2,22.0,30.06,NNW,348,2.3,2.3,22,0.00,,OVC,0.00,69.0,WeatherDisplay:10.37,2013-02-06 21:48:00,
2013-02-06 16:53:00,61.0,21.8,30.07,NE,44,3.5,3.5,22,0.00,,OVC,0.00,81.0,WeatherDisplay:10.37,2013-02-06 21:53:00,
2013-02-06 16:58:00,61.0,21.8,30.07,NE,36,2.3,2.3,22,0.00,,OVC,0.00,49.0,WeatherDisplay:10.37,2013-02-06 21:58:00,
2013-02-06 17:03:00,60.9,21.8,30.07,NE,38,2.3,2.3,22,0.00,,OVC,0.00,70.0,WeatherDisplay:10.37,2013-02-06 22:03:00,
2013-02-06 17:08:00,60.4,21.3,30.07,East,96,3.5,3.5,22,0.00,,OVC,0.00,44.0,WeatherDisplay:10.37,2013-02-06 22:08:00,
2013-02-06 17:13:00,60.2,21.2,30.07,East,92,2.3,0.0,22,0.00,,OVC,0.00,33.0,WeatherDisplay:10.37,2013-02-06 22:13:00,
2013-02-06 17:18:00,60.2,22.2,30.07,East,80,2.3,2.3,23,0.00,,OVC,0.00,35.0,WeatherDisplay:10.37,2013-02-06 22:18:00,
2013-02-06 17:23:00,59.9,20.9,30.07,East,79,1.1,0.0,22,0.00,,OVC,0.00,28.0,WeatherDisplay:10.37,2013-02-06 22:23:00,
2013-02-06 17:28:00,59.8,21.9,30.07,East,79,1.1,0.0,23,0.00,,OVC,0.00,18.0,WeatherDisplay:10.37,2013-02-06 22:28:00,
2013-02-06 17:33:00,59.5,21.6,30.07,East,79,2.3,2.3,23,0.00,,OVC,0.00,16.0,WeatherDisplay:10.37,2013-02-06 22:33:00,
2013-02-06 17:38:00,59.3,21.5,30.07,East,79,3.0,3.0,23,0.00,,OVC,0.00,12.0,WeatherDisplay:10.37,2013-02-06 22:38:00,
2013-02-06 17:43:00,58.9,22.1,30.07,East,79,1.1,0.0,24,0.00,,OVC,0.00,11.0,WeatherDisplay:10.37,2013-02-06 22:43:00,
2013-02-06 17:48:00,58.7,22.0,30.07,East,79,0.0,0.0,24,0.00,,OVC,0.00,9.0,WeatherDisplay:10.37,2013-02-06 22:48:00,
2013-02-06 17:53:00,58.1,21.4,30.07,East,79,0.0,0.0,24,0.00,,OVC,0.00,5.0,WeatherDisplay:10.37,2013-02-06 22:53:00,
2013-02-06 17:58:00,57.6,22.0,30.08,East,79,0.0,0.0,25,0.00,,OVC,0.00,0.0,WeatherDisplay:10.37,2013-02-06 22:58:00,
2013-02-06 18:03:00,56.9,21.4,30.08,East,79,0.0,0.0,25,0.00,,OVC,0.00,0.0,WeatherDisplay:10.37,2013-02-06 23:03:00,
2013-02-06 18:08:00,56.0,22.4,30.08,East,79,0.0,0.0,27,0.00,,OVC,0.00,0.0,WeatherDisplay:10.37,2013-02-06 23:08:00,
2013-02-06 18:13:00,55.3,22.7,30.09,East,79,0.0,0.0,28,0.00,,OVC,0.00,0.0,WeatherDisplay:10.37,2013-02-06 23:13:00,
2013-02-06 18:18:00,54.4,21.9,30.09,East,79,0.0,0.0,28,0.00,,OVC,0.00,0.0,WeatherDisplay:10.37,2013-02-06 23:18:00,
2013-02-06 18:23:00,53.8,23.1,30.09,East,79,0.0,0.0,30,0.00,,OVC,0.00,0.0,WeatherDisplay:10.37,2013-02-06 23:23:00,
2013-02-06 18:28:00,53.2,24.1,30.09,East,79,0.0,0.0,32,0.00,,OVC,0.00,0.0,WeatherDisplay:10.37,2013-02-06 23:28:00,
2013-02-06 18:33:00,52.3,24.7,30.09,East,79,0.0,0.0,34,0.00,,OVC,0.00,0.0,WeatherDisplay:10.37,2013-02-06 23:33:00,
2013-02-06 18:38:00,52.5,24.2,30.09,East,79,0.0,0.0,33,0.00,,OVC,0.00,0.0,WeatherDisplay:10.37,2013-02-06 23:38:00,
2013-02-06 18:43:00,52.0,25.2,30.09,East,79,0.0,0.0,35,0.00,,OVC,0.00,0.0,WeatherDisplay:10.37,2013-02-06 23:43:00,
2013-02-06 18:48:00,51.9,24.4,30.09,East,79,0.0,0.0,34,0.00,,OVC,0.00,0.0,WeatherDisplay:10.37,2013-02-06 23:48:00,
2013-02-06 18:53:00,51.3,24.5,30.09,East,79,0.0,0.0,35,0.00,,OVC,0.00,0.0,WeatherDisplay:10.37,2013-02-06 23:53:00,
2013-02-06 18:58:00,50.4,25.1,30.09,East,79,0.0,0.0,37,0.00,,OVC,0.00,0.0,WeatherDisplay:10.37,2013-02-06 23:58:00,
2013-02-06 19:03:00,50.1,25.5,30.09,East,79,0.0,0.0,38,0.00,,OVC,0.00,0.0,WeatherDisplay:10.37,2013-02-07 00:03:00,
2013-02-06 19:08:00,49.8,25.2,30.09,East,79,0.0,0.0,38,0.00,,OVC,0.00,0.0,WeatherDisplay:10.37,2013-02-07 00:08:00,
2013-02-06 19:13:00,49.6,25.0,30.09,East,79,0.0,0.0,38,0.00,,OVC,0.00,0.0,WeatherDisplay:10.37,2013-02-07 00:13:00,
2013-02-06 19:18:00,48.8,24.9,30.10,East,79,0.0,0.0,39,0.00,,OVC,0.00,0.0,WeatherDisplay:10.37,2013-02-07 00:18:00,
2013-02-06 19:23:00,48.2,26.2,30.10,East,79,0.0,0.0,42,0.00,,OVC,0.00,0.0,WeatherDisplay:10.37,2013-02-07 00:23:00,
2013-02-06 19:28:00,48.2,25.6,30.10,East,79,0.0,0.0,41,0.00,,OVC,0.00,0.0,WeatherDisplay:10.37,2013-02-07 00:28:00,
2013-02-06 19:33:00,48.0,24.8,30.10,East,79,0.0,0.0,40,0.00,,OVC,0.00,0.0,WeatherDisplay:10.37,2013-02-07 00:33:00,
2013-02-06 19:38:00,48.3,22.5,30.10,East,79,0.0,0.0,36,0.00,,OVC,0.00,0.0,WeatherDisplay:10.37,2013-02-07 00:38:00,
2013-02-06 19:43:00,49.8,21.8,30.10,East,79,0.0,0.0,33,0.00,,OVC,0.00,0.0,WeatherDisplay:10.37,2013-02-07 00:43:00,
2013-02-06 19:48:00,48.6,24.7,30.10,East,79,0.0,0.0,39,0.00,,OVC,0.00,0.0,WeatherDisplay:10.37,2013-02-07 00:48:00,
2013-02-06 19:53:00,47.3,25.9,30.11,East,79,0.0,0.0,43,0.00,,OVC,0.00,0.0,WeatherDisplay:10.37,2013-02-07 00:53:00,
2013-02-06 19:58:00,46.1,26.4,30.12,East,79,0.0,0.0,46,0.00,CLR,OVC,0.00,0.0,WeatherDisplay:10.37,2013-02-07 00:58:00,
2013-02-06 20:03:00,45.5,26.4,30.12,East,79,0.0,0.0,47,0.00,CLR,OVC,0.00,0.0,WeatherDisplay:10.37,2013-02-07 01:03:00,
2013-02-06 20:08:00,45.5,25.9,30.12,East,79,0.0,0.0,46,0.00,CLR,OVC,0.00,0.0,WeatherDisplay:10.37,2013-02-07 01:08:00,
2013-02-06 20:13:00,45.4,25.8,30.12,East,79,0.0,0.0,46,0.00,CLR,OVC,0.00,0.0,WeatherDisplay:10.37,2013-02-07 01:13:00,
2013-02-06 20:18:00,44.9,25.9,30.12,East,79,0.0,0.0,47,0.00,CLR,OVC,0.00,0.0,WeatherDisplay:10.37,2013-02-07 01:18:00,
2013-02-06 20:23:00,44.9,25.3,30.12,East,79,0.0,0.0,46,0.00,CLR,OVC,0.00,0.0,WeatherDisplay:10.37,2013-02-07 01:23:00,
2013-02-06 20:28:00,45.7,25.0,30.12,East,79,0.0,0.0,44,0.00,CLR,OVC,0.00,0.0,WeatherDisplay:10.37,2013-02-07 01:28:00,
2013-02-06 20:33:00,46.7,23.0,30.11,East,79,0.0,0.0,39,0.00,CLR,OVC,0.00,0.0,WeatherDisplay:10.37,2013-02-07 01:33:00,
2013-02-06 20:38:00,47.6,21.3,30.11,East,79,0.0,0.0,35,0.00,CLR,OVC,0.00,0.0,WeatherDisplay:10.37,2013-02-07 01:38:00,
2013-02-06 20:43:00,48.3,21.2,30.11,East,79,1.1,1.1,34,0.00,CLR,OVC,0.00,0.0,WeatherDisplay:10.37,2013-02-07 01:43:00,
2013-02-06 20:48:00,48.6,21.5,30.11,East,79,2.3,2.3,34,0.00,CLR,OVC,0.00,0.0,WeatherDisplay:10.37,2013-02-07 01:48:00,
2013-02-06 20:53:00,48.8,20.9,30.11,East,79,0.0,0.0,33,0.00,CLR,OVC,0.00,0.0,WeatherDisplay:10.37,2013-02-07 01:53:00,
2013-02-06 20:55:00,39.8,26.6,30.19,North,355,1.0,3.0,59,0.00,CLR,OVC,0.00,0.0,WeatherDisplay:10.37,2013-02-07 01:55:00,
2013-02-06 20:58:00,48.6,21.5,30.11,East,79,0.0,0.0,34,0.00,,OVC,0.00,0.0,WeatherDisplay:10.37,2013-02-07 01:58:00,
2013-02-06 21:00:00,39.6,26.4,30.19,North,359,1.0,4.0,59,0.00,CLR,OVC,0.00,0.0,WeatherDisplay:10.37,2013-02-07 02:00:00,
2013-02-06 21:03:00,48.5,22.1,30.10,East,79,0.0,0.0,35,0.00,,OVC,0.00,0.0,WeatherDisplay:10.37,2013-02-07 02:03:00,
2013-02-06 21:05:00,39.6,26.4,30.19,NNE,12,1.0,5.0,59,0.00,CLR,OVC,0.00,0.0,WeatherDisplay:10.37,2013-02-07 02:05:00,
2013-02-06 21:08:00,48.2,21.8,30.10,East,79,0.0,0.0,35,0.00,,OVC,0.00,0.0,WeatherDisplay:10.37,2013-02-07 02:08:00,
2013-02-06 21:13:00,48.2,21.8,30.11,East,79,0.0,0.0,35,0.00,,OVC,0.00,0.0,WeatherDisplay:10.37,2013-02-07 02:13:00,
2013-02-06 21:18:00,48.3,21.2,30.11,East,79,1.1,1.1,34,0.00,,OVC,0.00,0.0,WeatherDisplay:10.37,2013-02-07 02:18:00,
2013-02-06 21:23:00,47.9,21.5,30.11,East,79,2.3,0.0,35,0.00,,OVC,0.00,0.0,WeatherDisplay:10.37,2013-02-07 02:23:00,
2013-02-06 21:28:00,47.9,21.5,30.12,East,79,3.5,3.5,35,0.00,,OVC,0.00,0.0,WeatherDisplay:10.37,2013-02-07 02:28:00,
2013-02-06 21:33:00,48.2,21.1,30.12,East,79,1.1,1.1,34,0.00,,OVC,0.00,0.0,WeatherDisplay:10.37,2013-02-07 02:33:00,
2013-02-06 21:38:00,48.3,21.2,30.12,East,79,0.0,0.0,34,0.00,,OVC,0.00,0.0,WeatherDisplay:10.37,2013-02-07 02:38:00,
2013-02-06 21:43:00,48.0,21.6,30.12,East,79,0.0,0.0,35,0.00,,OVC,0.00,0.0,WeatherDisplay:10.37,2013-02-07 02:43:00,
2013-02-06 21:48:00,47.7,21.3,30.11,East,79,2.3,2.3,35,0.00,,OVC,0.00,0.0,WeatherDisplay:10.37,2013-02-07 02:48:00,
2013-02-06 21:53:00,47.6,21.3,30.11,East,79,0.0,0.0,35,0.00,,OVC,0.00,0.0,WeatherDisplay:10.37,2013-02-07 02:53:00,
2013-02-06 21:58:00,47.7,21.3,30.12,East,79,0.0,0.0,35,0.00,,OVC,0.00,0.0,WeatherDisplay:10.37,2013-02-07 02:58:00,
2013-02-06 22:03:00,47.7,21.3,30.12,East,79,0.0,0.0,35,0.00,,OVC,0.00,0.0,WeatherDisplay:10.37,2013-02-07 03:03:00,
2013-02-06 22:08:00,47.3,21.0,30.12,East,79,0.0,0.0,35,0.00,,OVC,0.00,0.0,WeatherDisplay:10.37,2013-02-07 03:08:00,
2013-02-06 22:13:00,46.2,22.6,30.12,East,79,0.0,0.0,39,0.00,,OVC,0.00,0.0,WeatherDisplay:10.37,2013-02-07 03:13:00,
2013-02-06 22:18:00,44.1,27.6,30.14,East,79,0.0,0.0,52,0.00,,OVC,0.00,0.0,WeatherDisplay:10.37,2013-02-07 03:18:00,
2013-02-06 22:23:00,42.8,27.3,30.14,East,79,0.0,0.0,54,0.00,,OVC,0.00,0.0,WeatherDisplay:10.37,2013-02-07 03:23:00,
2013-02-06 22:28:00,42.2,25.8,30.15,East,79,0.0,0.0,52,0.00,,OVC,0.00,0.0,WeatherDisplay:10.37,2013-02-07 03:28:00,
2013-02-06 22:33:00,41.5,27.0,30.16,East,79,0.0,0.0,56,0.00,,OVC,0.00,0.0,WeatherDisplay:10.37,2013-02-07 03:33:00,
2013-02-06 22:38:00,41.1,27.0,30.15,East,79,0.0,0.0,57,0.00,,OVC,0.00,0.0,WeatherDisplay:10.37,2013-02-07 03:38:00,
2013-02-06 22:43:00,40.9,25.5,30.14,East,79,0.0,0.0,54,0.00,,OVC,0.00,0.0,WeatherDisplay:10.37,2013-02-07 03:43:00,
2013-02-06 22:48:00,41.1,24.8,30.15,East,79,0.0,0.0,52,0.00,,OVC,0.00,0.0,WeatherDisplay:10.37,2013-02-07 03:48:00,
2013-02-06 22:53:00,42.2,24.4,30.15,East,79,0.0,0.0,49,0.00,,OVC,0.00,0.0,WeatherDisplay:10.37,2013-02-07 03:53:00,
2013-02-06 22:58:00,41.8,24.5,30.15,East,79,0.0,0.0,50,0.00,,OVC,0.00,0.0,WeatherDisplay:10.37,2013-02-07 03:58:00,
2013-02-06 23:03:00,41.2,24.4,30.15,East,79,0.0,0.0,51,0.00,,OVC,0.00,0.0,WeatherDisplay:10.37,2013-02-07 04:03:00,
2013-02-06 23:08:00,41.1,24.3,30.15,East,79,0.0,0.0,51,0.00,,OVC,0.00,0.0,WeatherDisplay:10.37,2013-02-07 04:08:00,
2013-02-06 23:13:00,41.1,24.3,30.14,East,79,0.0,0.0,51,0.00,,OVC,0.00,0.0,WeatherDisplay:10.37,2013-02-07 04:13:00,
2013-02-06 23:18:00,41.5,24.2,30.14,East,79,0.0,0.0,50,0.00,,OVC,0.00,0.0,WeatherDisplay:10.37,2013-02-07 04:18:00,
2013-02-06 23:23:00,41.3,24.0,30.14,East,79,0.0,0.0,50,0.00,,OVC,0.00,0.0,WeatherDisplay:10.37,2013-02-07 04:23:00,
2013-02-06 23:28:00,41.3,24.0,30.14,East,79,0.0,0.0,50,0.00,,OVC,0.00,0.0,WeatherDisplay:10.37,2013-02-07 04:28:00,
2013-02-06 23:33:00,41.6,23.8,30.14,East,79,0.0,0.0,49,0.00,,OVC,0.00,0.0,WeatherDisplay:10.37,2013-02-07 04:33:00,
2013-02-06 23:38:00,42.3,23.0,30.14,East,79,0.0,0.0,46,0.00,,OVC,0.00,0.0,WeatherDisplay:10.37,2013-02-07 04:38:00,
2013-02-06 23:43:00,42.3,23.5,30.14,East,79,0.0,0.0,47,0.00,,OVC,0.00,0.0,WeatherDisplay:10.37,2013-02-07 04:43:00,
2013-02-06 23:48:00,40.8,24.1,30.15,East,79,0.0,0.0,51,0.00,,OVC,0.00,0.0,WeatherDisplay:10.37,2013-02-07 04:48:00,
2013-02-06 23:53:00,40.5,24.2,30.14,East,79,0.0,0.0,52,0.00,,OVC,0.00,0.0,WeatherDisplay:10.37,2013-02-07 04:53:00,
2013-02-06 23:58:00,41.1,24.3,30.14,East,79,0.0,0.0,51,0.00,,OVC,0.00,0.0,WeatherDisplay:10.37,2013-02-07 04:58:00,